Regional Weather Roundup
Issued by NWS

Home | Current Version | Previous Version | Text Only | Print | Product List | Glossary On
Versions: 1 2 3 4 5 6 7 8 9 10 11 12 13 14 15 16 17 18 19 20 21 22 23 24 25 26 27 28 29 30 31 32 33 34 35 36 37 38 39 40 41 42 43 44 45 46 47 48 49 50
000
ASUS43 KMKX 230900
RWRWI

WISCONSIN REGIONAL WEATHER ROUNDUP
NATIONAL WEATHER SERVICE MILWAUKEE/SULLIVAN WI
400 AM CDT FRI JUN 23 2017

NOTE: "FAIR" INDICATES FEW OR NO CLOUDS BELOW 12,000 FEET WITH NO
SIGNIFICANT WEATHER AND/OR OBSTRUCTIONS TO VISIBILITY.

WIZ001-002-006>008-014>016-023>028-231000-
NORTHWEST WISCONSIN

CITY           SKY/WX    TMP DP  RH WIND       PRES   REMARKS
SUPERIOR ARPT  NOT AVBL
ASHLAND        CLEAR     52  49  89 SW8       29.63F
HAYWARD        CLEAR     49  47  93 SW5       29.68F FOG
SIREN          CLEAR     56  52  86 CALM      29.69S
CUMBERLAND     CLEAR     54  52  94 CALM      29.71S
RICE LAKE      CLEAR     56  54  94 CALM      29.72S
CHETEK         CLEAR     53  53 100 CALM      29.71S FOG
LADYSMITH      CLEAR     54  53  97 CALM      29.72S
EAU CLAIRE     FOG       60  59  96 CALM      29.70F VSB 1/4
MENOMONIE      CLEAR     58  56  96 SW3       29.71F
NEW RICHMOND   CLEAR     56  54  93 SW5       29.72S
OSCEOLA        CLEAR     53  53 100 CALM      29.73F
$$

WIZ003>005-009-010-017-018-231000-
NORTH CENTRAL WISCONSIN

CITY           SKY/WX    TMP DP  RH WIND       PRES   REMARKS
MANITOWISH WTR FOG       48  48 100 CALM      29.67F VSB<1/4
ARBOR VITAE    FOG       56  55  96 CALM      29.68F VSB 1/4
WOODRUFF       FOG       56  55  96 CALM      29.68F VSB 1/4
RHINELANDER    FOG       50  50 100 W5        29.69S VSB 1/4
EAGLE RIVER    FOG       51  51 100 CALM      29.67F VSB 1/4
LAND O LAKES   FOG       51  51  99 CALM      29.68F VSB 1/4
PHILLIPS       CLEAR     55  55  99 CALM      29.69S
TOMAHAWK       NOT AVBL
MEDFORD        CLEAR     58  56  96 W3        29.71S
MERRILL        CLEAR     58  58 100 W3        29.70R
$$

WIZ029-030-035-036-043>047-231000-
CENTRAL WISCONSIN

CITY           SKY/WX    TMP DP  RH WIND       PRES   REMARKS
WAUSAU         PTCLDY    59  59 100 SW3       29.68S
MOSINEE        FOG       59  59 100 W5        29.71S VSB 1/4
MARSHFIELD     CLEAR     59  58  96 W5        29.69F FOG
STEVENS POINT  CLOUDY    61  61 100 W3        29.70S
WAUPACA        CLOUDY    66  66  98 W3        29.68S
WAUTOMA        CLOUDY    65  63  93 CALM      29.68S
WISC RAPIDS    PTCLDY    62  61  96 W3        29.70F FOG
CAMP DOUGLAS   CLEAR     61  61 100 W6        29.70S FOG
$$

WIZ011>013-019>022-031-037>040-048>050-231000-
NORTHEAST WISCONSIN

CITY           SKY/WX    TMP DP  RH WIND       PRES   REMARKS
ANTIGO         CLOUDY    57  57 100 CALM      29.69S
SHAWANO        MOCLDY    65  63  93 W3        29.66F
OCONTO         MOCLDY    64  64  97 NW3       29.64S
STURGEON BAY     N/A     65  64  97 NW6         N/A
GREEN BAY      LGT RAIN  66  66 100 W7        29.66R
MANITOWOC      NOT AVBL
APPLETON       RAIN      64  64 100 W8        29.67R
CLINTONVILLE   MOCLDY    63  63 100 W5        29.67S
OSHKOSH        CLOUDY    65  63  93 W5        29.68R
$$

WIZ032>034-041-042-053>061-231000-
SOUTHWEST WISCONSIN

CITY           SKY/WX    TMP DP  RH WIND       PRES   REMARKS
LA CROSSE      CLEAR     65  63  93 NW7       29.70F
SPARTA           N/A     60  60 100 CALM      29.72S FOG
VIROQUA        PTCLDY    64  64 100 CALM      29.73F
BOSCOBEL       PTCLDY    61  60  97 CALM      29.71R
PRAIRIE DU CHI MOCLDY    65  64  94 CALM      29.71S
PLATTEVILLE    CLOUDY    65  65 100 N9        29.71S
$$

WIZ056-057-062-063-064-067-068-231000-
SOUTH CENTRAL WISCONSIN

CITY           SKY/WX    TMP DP  RH WIND       PRES   REMARKS
REEDSBURG      CLOUDY    64  64 100 CALM      29.70R
BARABOO/DELLS  LGT RAIN  64  62  94 CALM      29.71R
LONE ROCK      NOT AVBL
MINERAL POINT  CLOUDY    63  63 100 N14G22    29.69F
MADISON        CLOUDY    66  64  93 N9        29.68S
MIDDLETON      CLOUDY    66  66 100 N12       29.70R
WATERTOWN      RAIN      64  64 100 N6        29.66S
MONROE         TSTM      64  63  94 N7        29.68S
JANESVILLE     RAIN      68  68 100 CALM      29.68R
$$

WIZ051-052-058>065-066-070>072-231000-
SOUTHEAST WISCONSIN

CITY           SKY/WX    TMP DP  RH WIND       PRES   REMARKS
MILWAUKEE      TSTM      65  64  97 E9        29.65F FOG
WAUKESHA       CLOUDY    63  63 100 NE6       29.62F
MILWAUKEE/TIMM RAIN      64  61  88 N5        29.67S
RACINE         HVY RAIN  65  63  93 CALM      29.68R FOG
KENOSHA        HVY RAIN  66  64  93 E3        29.65R FOG
FOND DU LAC    LGT RAIN  66  63  90 W8        29.68R
SHEBOYGAN      RAIN      65  65 100 W6        29.66S FOG
WEST BEND      RAIN      63  63 100 CALM      29.67S
JUNEAU         LGT RAIN  64  63  97 CALM      29.68S
$$

LSZ147-162-231000-
LAKE SUPERIOR

STATION/POSITION TIME  TEMP    WIND        PRES    WAVE
                       AIR SEA DIR/SP/G            HT/PER
                 (UTC) (F)     (DEG/KT/KT) (MB)    (FT/S)
W MID LAKE BUOY  0750   44 39  220/ 10/ 12 1002.7F   1/ 3
DEVILS ISLAND    0800   60     220/ 13/ 14 1002.7F
SAXON HARBOR     0830   59     190/  8/ 10 1003.4S
$$

LMZ867-665-643>646-231000-
LAKE MICHIGAN

STATION/POSITION TIME  TEMP    WIND        PRES    WAVE
                       AIR SEA DIR/SP/G            HT/PER
                 (UTC) (F)     (DEG/KT/KT) (MB)    (FT/S)
CHAMBERS ISLAND  0840   64     250/  4/  6 1003.0F
S GREEN BAY BUOY 0830   66     300/ 10/ 12 1003.7F
N MID LAKE BUOY  0750   58 54  240/  6/  8 1003.9R   1/ 5
NORTHPORT PIER   0840   65     280/  4/  8 1003.4F
KEWAUNEE LAKESHO 0830   66     290/  4/  6 1003.4S
SHEBOYGAN LAKESH 0800   60     170/  6/  6 1003.7F
PORT WASHINGTON  0840   65      60/  4/  6 1004.7F
ATWATER BUOY     0709   62 59   40/ 12/ 14 1003.8F
MILWAUKEE LAKESH 0830   65      50/  4/  8   N/A
S MID LAKE BUOY  0750   65 61  210/ 12/ 14 1003.0F   3/ 4
KENOSHA   LAKESH 0800   63      30/ 16/ 21 1003.4
$$

TC  - TEMPERATURE IN CELSIUS
VSB - VISIBILITY IN STATUTE MILES
WCI - WIND CHILL INDEX
HX  - HEAT INDEX





USA.gov is the U.S. government's official web portal to all federal, state and local government web resources and services.